Location: ??
(31.9467°N, 34.8903°E)
Time: 18:17:35
(UTC+00:00)

Cosmos 1812 Rocket - Pass Details

Date: 29 October 2020
Orbit: 605 x 632 km, 82.5° (Epoch: 30 November)

Event Time Altitude Azimuth Distance (km) Brightness Sun altitude
Rises 15:39:40 0° 163° (SSE) 2,893 6.9 -10.5°
Reaches altitude 10° 15:42:04 10° 154° (SSE) 1,986 6.0 -11.0°
Maximum altitude 15:45:58 32° 91° (E) 1,074 4.2 -11.8°
Drops below altitude 10° 15:49:52 10° 28° (NNE) 1,982 5.8 -12.6°
Sets 15:52:15 0° 19° (NNE) 2,887 6.7 -13.1°
